"Pseudo-MPEC" for ZTF02V5

Created 2019 Feb 19 10:18:09 UT using Find_Orb

Click here for an explanation of pseudo-MPECs

 
 Astrometry: 
     ZTF02V5  C2019 02 08.35444 10 55 29.11 -09 14 10.6    ~292I 20.7 rUNEOCPI41
     ZTF02V5  C2019 02 08.37359 10 55 30.07 -09 14 10.5    ~292I 20.4 rUNEOCPI41
     ZTF02V5  C2019 02 08.37992 10 55 30.35 -09 14 11.0    ~292I 20.6 rUNEOCPI41
     ZTF02V5  C2019 02 08.38308 10 55 30.51 -09 14 10.7    ~292I 20.7 rUNEOCPI41

Station data:
(I41) Palomar Mountain--ZTF  (N33.357340 W116.859780)  US/California. 1.2-m
   f/2.44 Oschin Schmidt + CCD.

Orbital elements:  ZTF02V5
   Perihelion 2019 Mar 3.702874 +/- 39.5 TT = 16:52:08 (JD 2458546.202874)
Epoch 2019 Feb  8.0 TT = JDT 2458522.5   Earth MOID: 0.4457   Ju: 0.4214
M 355.67736134 +/- 27               Ma: 0.0538                AutoNEOCP
n   0.18236770 +/- 0.278            Peri.  334.94238 +/- 80
a   3.07966937 +/- 3.13             Node   190.25597 +/- 40
e   0.5345317 +/- 0.25              Incl.    8.01072 +/- 8
P   5.40                   H 20.4   G  0.15   U 11.9  SR
q 1.43348837 +/- 0.442    Q 4.72585037 +/- 49.5
From 4 observations 2019 Feb. 8 (41.2 min); mean residual 0".17
Residuals in arcseconds: 
190208 I41  .08-  .04-    190208 I41  .15-  .24-    
190208 I41  .28+  .21+    190208 I41  .06-  .07+    

Ephemerides (geocentric):
Date (UTC) HH   RA              Dec         delta   r     elong  mag " sig PA
---- -- -- --  -------------   -----------  ------ ------ -----  --- ---- ---
2019 02 19 10  11 04 34.851   -08 39 44.61  .47983 1.4393 155.7 20.5  68d 175
2019 02 19 11  11 04 36.702   -08 39 28.77  .47969 1.4392 155.7 20.5  68d 175
2019 02 19 12  11 04 38.552   -08 39 12.88  .47956 1.4392 155.7 20.5  68d 175
2019 02 19 13  11 04 40.400   -08 38 56.92  .47943 1.4392 155.8 20.5  68d 175
2019 02 19 14  11 04 42.247   -08 38 40.90  .47929 1.4391 155.8 20.5  68d 175
2019 02 19 15  11 04 44.092   -08 38 24.83  .47916 1.4391 155.8 20.5  68d 175
2019 02 19 16  11 04 45.936   -08 38 08.69  .47903 1.4390 155.9 20.5  68d 175
2019 02 19 17  11 04 47.779   -08 37 52.49  .47890 1.4390 155.9 20.5  68d 175
2019 02 19 18  11 04 49.620   -08 37 36.23  .47876 1.4390 155.9 20.5  68d 175
2019 02 19 19  11 04 51.460   -08 37 19.91  .47863 1.4389 156.0 20.5  68d 175
2019 02 19 20  11 04 53.298   -08 37 03.53  .47850 1.4389 156.0 20.5  68d 175
2019 02 19 21  11 04 55.135   -08 36 47.09  .47837 1.4389 156.0 20.5  68d 175
2019 02 19 22  11 04 56.971   -08 36 30.59  .47824 1.4388 156.1 20.5  68d 175
2019 02 19 23  11 04 58.805   -08 36 14.02  .47811 1.4388 156.1 20.5  68d 175
2019 02 20 00  11 05 00.638   -08 35 57.40  .47798 1.4387 156.1 20.5  68d 175
2019 02 20 01  11 05 02.469   -08 35 40.72  .47785 1.4387 156.2 20.5  69d 175
2019 02 20 02  11 05 04.299   -08 35 23.98  .47772 1.4387 156.2 20.5  69d 175
2019 02 20 03  11 05 06.128   -08 35 07.17  .47759 1.4386 156.2 20.5  69d 175
2019 02 20 04  11 05 07.955   -08 34 50.31  .47746 1.4386 156.3 20.5  69d 174
2019 02 20 05  11 05 09.781   -08 34 33.39  .47733 1.4386 156.3 20.5  69d 174
2019 02 20 06  11 05 11.606   -08 34 16.40  .47720 1.4385 156.3 20.5  69d 174
2019 02 20 07  11 05 13.429   -08 33 59.36  .47707 1.4385 156.4 20.5  69d 174
2019 02 20 08  11 05 15.251   -08 33 42.25  .47694 1.4385 156.4 20.5  69d 174
2019 02 20 09  11 05 17.072   -08 33 25.09  .47681 1.4384 156.4 20.5  69d 174
2019 02 20 10  11 05 18.891   -08 33 07.86  .47669 1.4384 156.5 20.5  69d 174
2019 02 20 11  11 05 20.708   -08 32 50.58  .47656 1.4383 156.5 20.5  70d 174
2019 02 20 12  11 05 22.525   -08 32 33.23  .47643 1.4383 156.5 20.5  70d 174
2019 02 20 13  11 05 24.340   -08 32 15.82  .47630 1.4383 156.6 20.5  70d 174
2019 02 20 14  11 05 26.153   -08 31 58.36  .47618 1.4382 156.6 20.5  70d 174
2019 02 20 15  11 05 27.966   -08 31 40.83  .47605 1.4382 156.6 20.5  70d 174
2019 02 20 16  11 05 29.776   -08 31 23.25  .47592 1.4382 156.7 20.5  70d 174
2019 02 20 17  11 05 31.586   -08 31 05.60  .47580 1.4381 156.7 20.5  70d 174
2019 02 20 18  11 05 33.394   -08 30 47.89  .47567 1.4381 156.7 20.5  70d 174
2019 02 20 19  11 05 35.201   -08 30 30.12  .47555 1.4381 156.8 20.5  70d 174
2019 02 20 20  11 05 37.006   -08 30 12.30  .47542 1.4380 156.8 20.5  70d 175
2019 02 20 21  11 05 38.811   -08 29 54.41  .47530 1.4380 156.9 20.4  70d 175
2019 02 20 22  11 05 40.613   -08 29 36.46  .47517 1.4380 156.9 20.4  70d 175
2019 02 20 23  11 05 42.415   -08 29 18.46  .47505 1.4379 156.9 20.4  70d 175
2019 02 21 00  11 05 44.215   -08 29 00.39  .47492 1.4379 157.0 20.4  70d 175
2019 02 21 01  11 05 46.014   -08 28 42.26  .47480 1.4379 157.0 20.4  71d 175
2019 02 21 02  11 05 47.811   -08 28 24.07  .47467 1.4378 157.0 20.4  71d 175
2019 02 21 03  11 05 49.607   -08 28 05.83  .47455 1.4378 157.1 20.4  71d 175
2019 02 21 04  11 05 51.402   -08 27 47.52  .47443 1.4378 157.1 20.4  71d 175
2019 02 21 05  11 05 53.195   -08 27 29.15  .47430 1.4377 157.1 20.4  71d 175
2019 02 21 06  11 05 54.987   -08 27 10.73  .47418 1.4377 157.2 20.4  71d 175
2019 02 21 07  11 05 56.778   -08 26 52.24  .47406 1.4377 157.2 20.4  71d 175
2019 02 21 08  11 05 58.567   -08 26 33.69  .47394 1.4376 157.2 20.4  71d 175
2019 02 21 09  11 06 00.355   -08 26 15.09  .47381 1.4376 157.3 20.4  71d 175